Tracking 32991 objects as of 22-Jan-2026
HD Live streaming from Space Station
objects crossing your sky now

STARLINK-6122

Track STARLINK-6122 now!
10-day predictions
STARLINK-6122 is classified as:


NORAD ID: 56128
Int'l Code: 2023-046AN
Perigee: 565.4 km
Apogee: 567.0 km
Inclination: 43.0 °
Period: 95.8 minutes
Semi major axis: 6937 km
RCS: Unknown
Launch date: March 29, 2023
Source: United States (US)
Launch site: AIR FORCE EASTERN TEST RANGE (AFETR)
Your satellite tracking list
Your tracking list is empty




NASA's NSSDC Master Catalog

Two Line Element Set (TLE):
1 56128U 23046AN  26021.39368657 -.00001071  00000-0 -64223-4 0  9997
2 56128  43.0045  43.2878 0001136 273.1507  86.9206 15.02533269155095
Source of the keplerian elements: AFSPC